Weather History for Charles City, IA

Change the Weather History Date:

Tuesday, September 24, 2013

  Actual Average Record
Temperature  
Mean Temperature 60 °F -  
Max Temperature 73 °F 69 °F 85 °F (1958)
Min Temperature 48 °F 43 °F 28 °F (1989)
Degree Days  
Heating Degree Days 4    
Growing Degree Days 10 (Base 50)    
Moisture  
Dew Point 50 °F    
Average Humidity 71    
Maximum Humidity 93    
Minimum Humidity 44    
Precipitation  
Precipitation 0.00 in - - ()
Sea Level Pressure  
Sea Level Pressure 29.94 in    
Wind  
Wind Speed 10 mph (ESE)    
Max Wind Speed 15 mph    
Max Gust Speed 21 mph    
Visibility 10 miles    
Events      
Averages and records for this station are not official NWS values.
T = Trace of Precipitation, MM = Missing Value Source: NWS Daily Summary

Daily Weather History Graph

Daily Weather History Graph

Search for Another Location

Airport:

Trip Planner

Search our weather history database for the weather conditions in past years. The results will help you decide how hot, cold, wet, or windy it might be!

Date:

Astronomy

Sep. 24, 2013 Rise Set
Actual Time 7:00 AM CDT 7:03 PM CDT
Civil Twilight 6:31 AM CDT 7:31 PM CDT
Nautical Twilight 5:58 AM CDT 8:05 PM CDT
Astronomical Twilight 5:24 AM CDT 8:38 PM CDT
Moon 10:13 PM CDT (9/24) 12:23 PM CDT (9/24)
Length of Visible Light 13h 00m
Length of Day
12h 03m
Waning Gibbous, 73% of the Moon is Illuminated
Sep 24
Waning Gibbous
Sep 26
Last Quarter
Oct 4
New
Oct 11
First Quarter
Oct 18
Full

Hourly Weather History & Observations

Time (CDT) Temp. Dew Point Humidity Pressure Visibility Wind Dir Wind Speed Gust Speed Precip Events Conditions
12:15 AM 55.4 °F 48.2 °F 77% 29.96 in 10.0 mi ESE 11.5 mph - N/A   Clear
12:35 AM 55.4 °F 48.2 °F 77% 29.96 in 10.0 mi ESE 10.4 mph - N/A   Clear
12:55 AM 55.4 °F 48.2 °F 77% 29.96 in 10.0 mi SE 9.2 mph - N/A   Clear
1:15 AM 55.4 °F 48.2 °F 77% 29.96 in 10.0 mi ESE 10.4 mph - N/A   Clear
1:35 AM 53.6 °F 48.2 °F 82% 29.96 in 10.0 mi ESE 11.5 mph - N/A   Clear
1:55 AM 53.6 °F 48.2 °F 82% 29.96 in 10.0 mi ESE 11.5 mph - N/A   Clear
2:15 AM 53.6 °F 48.2 °F 82% 29.96 in 10.0 mi ESE 12.7 mph - N/A   Clear
2:35 AM 51.8 °F 48.2 °F 88% 29.96 in 10.0 mi ESE 10.4 mph - N/A   Clear
2:55 AM 53.6 °F 46.4 °F 77% 29.95 in 10.0 mi ESE 10.4 mph - N/A   Clear
3:15 AM 51.8 °F 46.4 °F 82% 29.95 in 10.0 mi ESE 10.4 mph - N/A   Clear
3:35 AM 51.8 °F 46.4 °F 82% 29.95 in 10.0 mi ESE 10.4 mph - N/A   Clear
3:55 AM 51.8 °F 46.4 °F 82% 29.95 in 10.0 mi ESE 10.4 mph - N/A   Clear
4:15 AM 51.8 °F 46.4 °F 82% 29.94 in 10.0 mi ESE 11.5 mph - N/A   Clear
4:35 AM 51.8 °F 46.4 °F 82% 29.94 in 10.0 mi ESE 11.5 mph 17.3 mph N/A   Clear
4:55 AM 50.0 °F 46.4 °F 87% 29.94 in 10.0 mi ESE 10.4 mph - N/A   Clear
5:15 AM 50.0 °F 46.4 °F 87% 29.94 in 10.0 mi ESE 11.5 mph - N/A   Clear
5:35 AM 50.0 °F 46.4 °F 87% 29.94 in 10.0 mi ESE 10.4 mph - N/A   Clear
5:55 AM 50.0 °F 46.4 °F 87% 29.94 in 10.0 mi ESE 9.2 mph - N/A   Clear
6:15 AM 50.0 °F 46.4 °F 87% 29.94 in 10.0 mi ESE 9.2 mph - N/A   Clear
6:35 AM 50.0 °F 46.4 °F 87% 29.94 in 10.0 mi East 9.2 mph - N/A   Clear
6:55 AM 48.2 °F 46.4 °F 93% 29.95 in 10.0 mi ESE 8.1 mph - N/A   Clear
7:15 AM 50.0 °F 46.4 °F 87% 29.95 in 9.0 mi ESE 8.1 mph - N/A   Clear
7:35 AM 50.0 °F 46.4 °F 87% 29.95 in 9.0 mi ESE 9.2 mph - N/A   Clear
7:55 AM 51.8 °F 46.4 °F 82% 29.95 in 10.0 mi ESE 10.4 mph - N/A   Clear
8:15 AM 53.6 °F 48.2 °F 82% 29.95 in 10.0 mi ESE 10.4 mph - N/A   Clear
8:35 AM 53.6 °F 48.2 °F 82% 29.95 in 10.0 mi ESE 11.5 mph - N/A   Clear
8:55 AM 55.4 °F 48.2 °F 77% 29.96 in 10.0 mi ESE 10.4 mph - N/A   Clear
9:15 AM 57.2 °F 50.0 °F 77% 29.96 in 10.0 mi ESE 9.2 mph - N/A   Clear
9:35 AM 59.0 °F 50.0 °F 72% 29.96 in 10.0 mi ESE 13.8 mph - N/A   Clear
9:55 AM 60.8 °F 50.0 °F 68% 29.96 in 10.0 mi ESE 11.5 mph - N/A   Clear
10:15 AM 62.6 °F 50.0 °F 63% 29.96 in 10.0 mi ESE 9.2 mph - N/A   Clear
10:35 AM 62.6 °F 51.8 °F 68% 29.96 in 10.0 mi ESE 11.5 mph - N/A   Clear
10:55 AM 64.4 °F 51.8 °F 64% 29.96 in 10.0 mi East 10.4 mph - N/A   Clear
11:15 AM 64.4 °F 51.8 °F 64% 29.96 in 10.0 mi East 10.4 mph - N/A   Clear
11:35 AM 66.2 °F 51.8 °F 60% 29.96 in 10.0 mi East 11.5 mph - N/A   Clear
11:55 AM 68.0 °F 53.6 °F 60% 29.96 in 10.0 mi ESE 10.4 mph - N/A   Clear
12:15 PM 68.0 °F 53.6 °F 60% 29.95 in 10.0 mi East 10.4 mph - N/A   Clear
12:35 PM 69.8 °F 53.6 °F 56% 29.95 in 10.0 mi ESE 9.2 mph - N/A   Clear
12:55 PM 69.8 °F 53.6 °F 56% 29.95 in 10.0 mi ESE 9.2 mph - N/A   Clear
1:15 PM 69.8 °F 51.8 °F 53% 29.94 in 10.0 mi ESE 10.4 mph 16.1 mph N/A   Clear
1:35 PM 71.6 °F 51.8 °F 50% 29.93 in 10.0 mi East 15.0 mph - N/A   Clear
1:55 PM 71.6 °F 51.8 °F 50% 29.92 in 10.0 mi East 12.7 mph 18.4 mph N/A   Clear
2:15 PM 71.6 °F 51.8 °F 50% 29.92 in 10.0 mi East 12.7 mph - N/A   Clear
2:35 PM 71.6 °F 50.0 °F 46% 29.92 in 10.0 mi SE 11.5 mph 19.6 mph N/A   Clear
2:55 PM 71.6 °F 50.0 °F 46% 29.92 in 10.0 mi East 12.7 mph - N/A   Clear
3:15 PM 71.6 °F 50.0 °F 46% 29.91 in 10.0 mi ESE 15.0 mph - N/A   Clear
3:35 PM 71.6 °F 51.8 °F 50% 29.91 in 10.0 mi East 12.7 mph - N/A   Clear
3:55 PM 73.4 °F 50.0 °F 44% 29.91 in 10.0 mi East 15.0 mph - N/A   Clear
4:15 PM 73.4 °F 51.8 °F 47% 29.92 in 10.0 mi ESE 13.8 mph 20.7 mph N/A   Clear
4:35 PM 73.4 °F 51.8 °F 47% 29.92 in 10.0 mi East 8.1 mph 18.4 mph N/A   Clear
4:55 PM 71.6 °F 51.8 °F 50% 29.93 in 10.0 mi East 9.2 mph - N/A   Scattered Clouds
5:15 PM 71.6 °F 51.8 °F 50% 29.93 in 10.0 mi ESE 10.4 mph - N/A   Mostly Cloudy
5:35 PM 69.8 °F 51.8 °F 53% 29.94 in 10.0 mi ESE 8.1 mph - N/A   Mostly Cloudy
5:55 PM 69.8 °F 50.0 °F 49% 29.94 in 10.0 mi ESE 9.2 mph - N/A   Clear
6:15 PM 69.8 °F 51.8 °F 53% 29.93 in - ESE 8.1 mph - N/A   Clear
6:35 PM 66.2 °F 51.8 °F 60% 29.94 in 10.0 mi East 5.8 mph - N/A   Clear
6:55 PM 66.2 °F 51.8 °F 60% 29.94 in 10.0 mi East 5.8 mph - N/A   Clear
7:15 PM 62.6 °F 51.8 °F 68% 29.94 in 10.0 mi ENE 5.8 mph - N/A   Clear
7:35 PM 62.6 °F 51.8 °F 68% 29.94 in 10.0 mi East 6.9 mph - N/A   Clear
7:55 PM 62.6 °F 51.8 °F 68% 29.94 in 10.0 mi East 6.9 mph - N/A   Clear
8:15 PM 59.0 °F 51.8 °F 77% 29.94 in 10.0 mi East 6.9 mph - N/A   Clear
8:35 PM 57.2 °F 51.8 °F 82% 29.94 in 10.0 mi East 6.9 mph - N/A   Clear
8:55 PM 57.2 °F 51.8 °F 82% 29.94 in 10.0 mi East 8.1 mph - N/A   Clear
9:15 PM 59.0 °F 51.8 °F 77% 29.94 in 10.0 mi East 5.8 mph - N/A   Clear
9:35 PM 57.2 °F 50.0 °F 77% 29.94 in 10.0 mi East 4.6 mph - N/A   Clear
9:55 PM 57.2 °F 50.0 °F 77% 29.95 in 10.0 mi Calm Calm - N/A   Clear
10:15 PM 57.2 °F 50.0 °F 77% 29.95 in 10.0 mi Calm Calm - N/A   Clear
10:35 PM 53.6 °F 50.0 °F 88% 29.95 in 10.0 mi NNE 3.5 mph - N/A   Clear
10:55 PM 55.4 °F 50.0 °F 82% 29.95 in 10.0 mi NE 5.8 mph - N/A   Clear
11:15 PM 55.4 °F 50.0 °F 82% 29.95 in 10.0 mi NE 5.8 mph - N/A   Clear
11:35 PM 53.6 °F 50.0 °F 88% 29.95 in 10.0 mi NE 8.1 mph - N/A   Clear
11:55 PM 53.6 °F 50.0 °F 88% 29.95 in 10.0 mi NE 6.9 mph - N/A   Clear